Regional Weather Roundup
Issued by NWS Goodland, KS

Home | Current Version | Previous Version | Graphics & Text | Print | Product List | Glossary On
Versions: 1 2 3 4 5 6 7 8 9 10 11 12 13 14 15 16 17 18 19 20 21 22 23 24 25 26 27 28 29 30 31 32 33 34 35 36 37 38 39 40 41 42 43 44 45 46 47 48 49 50
000
ASUS43 KGLD 282208
RWRGLD

GOODLAND FORECAST AREA HOURLY WEATHER ROUNDUP
NATIONAL WEATHER SERVICE GOODLAND KS
400 PM MDT THU JUL 28 2016

...OFFICIAL OBSERVATIONS...

CITY           SKY/WX    TMP DP  RH WIND       PRES   REMARKS
GOODLAND KS    SUNNY     84  62  47 E9        30.06F
HILL CITY KS   CLOUDY    71  62  73 N20G39    30.04R
IMPERIAL NEB   SUNNY     75  60  59 SE12      30.09F
MCCOOK NEB     CLOUDY    68  64  87 E7        30.05F
AKRON CO       CLOUDY    76  59  55 NE10      30.15F
BURLINGTON CO  SUNNY     84  61  45 E15       30.09F
LIMON CO       SUNNY     86  55  34 E17G24    30.12F
$$

...UNOFFICIAL OBSERVATIONS...

CITY           SKY/WX    TMP DP  RH WIND       PRES   REMARKS
COLBY KS       MOSUNNY   81  66  61 NE17G24   30.09R
LENORA KS        N/A     62  32  32 MISG        N/A
NORTON KS      MOSUNNY   63  59  88 NE10      30.02F
SHARON SPRINGS   N/A     87  65  48 SE6G15      N/A
KIT CARSON CO    N/A     90  61  37 MISG        N/A
YUMA CO          N/A     77  63  61 NE8         N/A
$$




USA.gov is the U.S. government's official web portal to all federal, state and local government web resources and services.